FENGYUN 1C DEB

Satellite information

Favourite Embed

Satellite Type and Status

DEBRISIN ORBIT

Key statistics

Satellite FENGYUN 1C DEB at a glance.

Uptime

9666

Days in orbit

Revolutions

≈ 14.0

Per day

Orbit

SSO

Sun Synchronous Orbit

Inclination

98.6

Latest

Satellite identification and parameters

Extended collection of information and parameters for FENGYUN 1C DEB.

Object identification

Identified? True

Debris? True

Object name: FENGYUN 1C DEB

International designator: 1999-025DUG

Object number (NORAD): 36207

Object ID (CCSDS): 36207

Country: PEOPLES REPUBLIC OF CHINA (PRC)

Current information (Y/N): Y

RCS size: SMALL

Orbital parameters

Period: 102.748 minutes

Inclination: 98.6152 deg

SMA: 7266.798 km

Apoapsis: 995.626 km

Periapsis: 781.701 km

RAAN: 93.415 deg

Eccentricy: 0.0147193

Argument of periapsis: 11.7134 deg

Mean anomaly: 348.7397 deg

Mean motion: 14.01483837 rev/day

Mean motion (dot): 0.00002918 rev/day2

B* drag term: 0.0017816 1/REarth

Two-line elements (TLE)

Creation date: July 20, 2025, 6:36 a.m.

Reference frame: TEME

Reference center: EARTH

Epoch: July 19, 2025, 10 p.m. UTC

TLE line 0: 0 FENGYUN 1C DEB

TLE line 1: 1 36207U 99025DUG 25200.91686994 .00002918 00000-0 17816-2 0 9999

TLE line 2: 2 36207 98.6152 93.4150 0147193 11.7134 348.7397 14.01483837892059

Live tracking on map

Real-time ground track for satellite FENGYUN 1C DEB.

In-orbit conjunctions

A list of the most updated potential collisions computed for object FENGYUN 1C DEB.

Target Orbit TCA Probability of collision Miss distance Type
SL-16 DEB LEO 2024-07-03 17:10:35 0.0001035518 152.0 (m) DEBRIS
FENGYUN 1C DEB SSO 2024-06-28 08:16:30 0.0002624716 29.0 (m) DEBRIS

Associated space launch

Chinese polar orbiting meteorological satellite

FENGYUN 1C DEB was lifted into orbit during the mission ‘Long March 4B | Feng Yun 1C’, on board a Long March 4B space rocket.

The launch took place on May 10, 1999, 1:33 a.m. from Launch Complex 7.

For more information about the launch, click the button.

Launch to space Long March 4B | Feng Yun 1C
Long March 4B | Feng Yun 1C

Agency: N/A

Status: Launch Successful

Launch date: May 10, 1999, 1:33 a.m. UTC

Rocket: Long March 4B

Launch pad: Launch Complex 7

Location: Taiyuan Satellite Launch Center, People's Republic of China

...

Latest news about this satellite

There are no fresh news available about this satellite. Check back as we update our databases every day.


Newsletter sign-up

Weekly statistics, charts and insights to help you stay on top of the space industry.